Location: Glencliff
(36.1226°N, 86.7183°W)
Time: 07:57:16
(UTC+00:00)

Cosmos 2346 Rocket - Pass Details

Date: 25 August 2019
Orbit: 937 x 979 km, 82.9° (Epoch: 16 October)

Event Time Altitude Azimuth Distance (km) Brightness Sun altitude
Exits shadow 10:08:36 - 193° (SSW) 3,614 7.1 -13.1°
Rises 10:08:40 0° 194° (SSW) 3,586 7.1 -13.1°
Reaches altitude 10° 10:11:10 10° 197° (SSW) 2,643 6.4 -12.6°
Maximum altitude 10:17:09 64° 278° (W) 1,035 4.4 -11.5°
Drops below altitude 10° 10:23:09 10° 360° (N) 2,658 7.1 -10.4°
Sets 10:25:41 0° 3° (N) 3,609 7.8 -9.9°
